Погода в Балашове

Хотите узнать прогноз погоды в Балашове? Тогда Вам сюда: Погода в Балашове

Поиск расширенной информации на нашем сайте:

Полезная информация:

Новости сайта



02.01.2020
Опубликован Долгосрочный прогноз погоды по городам России и ближнего зарубежья на январь 2020 года.
Карты: Прогноз на январь и февраль 2020 года, Сравнение прогнозируемой аномалии приземной температуры воздуха на январь 2020 года по разным моделям.




Погода в Балашове - сегодня

Время (UTC), дата Ветер
(°,м/с) 
Видим.   Явления Облачность Т
(°С)
Тd
(°С)
f(%) Тe
(°С)
Pmin
(гПа)
dP
(гПа)
Po
(мм)
O2
(г/м3)
Тmin Tmax R s Состояние
почвы
09 16.01.21 220 (ЮЗ) 10 км  слаб. снег  10/0 средняя 
[As op]
-5.6 -6.6 93 -9  1003.8  -0.3  738  304           
12 16.01.21 230 (ЮЗ) 6{11}  10 км  {снег}  10/0 средняя 
[As op]
-8 -9.1 92 -13  1004.8  0.9  739  307           
15 16.01.21 230 (ЮЗ) 4{11}  10 км  в посл. час снег  10/0 средняя 
[As op]
-12.4 -13.6 91 -17  1007.1  1.8  740  314    -4.8  0.8     
18 16.01.21 240 (ЮЗ) 5{11}  10 км  слаб. снег  10/0 средняя 
[As op]
-12.6 -14.3 87 -18  1008.8  1.6  741  314           
21 16.01.21 230 (ЮЗ) 10 км  слаб. снег  10/0 средняя 
[As op]
-13.1 -14.6 88 -18  1009.8  0.9  742  315           
00 17.01.21 240 (ЮЗ) 10 км  слаб. снег  10/0 средняя 
[As op]
-13.3 -14.8 88 -18  1011  1.2  743  316           
03 17.01.21 250 (З) 10 км  {снег}  10/0 средняя 
[As op]
-13.8 -15.4 88 -17  1012  0.9  743  317  -13.9    0.2  50  равномерный
сухой снег
100% 
06 17.01.21 240 (ЮЗ) 20000 м  слаб. снег  10/0 средняя 
[Ac As]
-14.6 -15.9 90 -15  1013.3  1.2  744  318  -15.2         
09 17.01.21 190 (Ю) 20000 м  {снег}  5/0 верхняя 
[Ci fib]
-13.5 -16.6 77 -16  1014.4  1.2  745  317           
12 17.01.21 180 (Ю) 20000 м  {снег}  10/0 верхняя 
[Cc]
-15.4 -18.4 78 -18  1015  0.4  746  320           
15 17.01.21 190 (Ю) 20000 м    ясно 
-20.5 -21.7 90 -21  1016.6  1.1  746  327    -12.8  0.0     
18 17.01.21 020 (С) 20000 м    ясно 
-21.1 -22.3 90 -21  1017.4  0.7  747  328           
21 17.01.21 020 (С) 20000 м  [диам. изморози 0 мм]  9/0 средняя 
[Ac trans]
-20.3 -21.7 89 -21  1017.9  0.6  747  327           
00 18.01.21 070 (В) 20000 м    ясно 
-21.4 -23 87 -22  1018  747  328           
03 18.01.21 360 (С) 20000 м  [диам. изморози 3 мм]  ясно 
-20.6 -22.2 87 -21  1017.8  -0.1  747  327  -22.4      20  равномерный
сухой снег
100% 
06 18.01.21 030 (СВ) 10 км  [диам. изморози 2 мм]  10/0 средняя 
[As op]
-19.8 -21.3 88 -20  1017.9  0.2  747  326           
09 18.01.21 020 (С) 4000 м  снег  10/0 средняя 
[Ac As]
-16.2 -17.6 89 -19  1018.1  0.5  748  322           
12 18.01.21 040 (СВ) 1000 м  сильн. снег  10/0 средняя 
[Ac As]
-15.2 -16.8 88 -15  1017.3  -0.6  747  320           
15 18.01.21 020 (С) 4000 м  слаб. снег  10/0 средняя 
[Ac As]
-15.8 -17.1 90 -18  1017.5  0.1  747  321    -15     
18 18.01.21 040 (СВ) 10 км  слаб. снег  10/0 средняя 
[Ac As]
-17 -18.3 90 -17  1017.6  0.3  748  323           
21 18.01.21 040 (СВ) 10 км  слаб. снег  10/0 средняя 
[As op]
-19.4 -20.7 89 -20  1018.5  0.3  748  326           
00 19.01.21 тихо ()   20000 м  {снег}  10/0 средняя 
[As trans]
-21.7 -23.4 86 -22  1018.1  -0.5  747  329           
03 19.01.21 тихо ()   20000 м    4/4 100 м 
[St]
-23.4 -25.2 85 -23  1018.3  0.1  747  331  -24.6    0.2  50  равномерный
сухой снег
100% 
06 19.01.21 190 (Ю) 20000 м    10/6 600 м верхняя 
[Sc diur, vesp|Ci fib]
-24.8 -26.8 83 -25  1019.1  0.6  748  333  -25.8         
09 19.01.21 тихо ()   4000 м  слаб. снег  10/0 средняя 
[Ac As]
-17.1 -18.4 90 -17  1018.1  -0.3  748  323           
Время (UTC), дата Ветер
(°,м/с) 
Видим.   Явления Облачность Т
(°С)
Тd
(°С)
f(%) Тe
(°С)
Pmin
(гПа)
dP
(гПа)
Po
(мм)
O2
(г/м3)
Тmin Tmax R s Состояние
почвы

Для получения пояснительной информации подведите курсор к названию столбца.

ПОГОДА в Балашове - архив

Всё, что Вы хотите узнать о погоде в Балашове - удобно и подробно!

Выберите нужную дату (начиная с 1 января 2019* года) и нажмите кнопку "Найти".
Будут отображены архивные сводки погоды по пункту Балашов, начиная с указанной даты.


Отображать данные в формате CSV (для использования в таблицах Excel)


Внимание! Наш архив погоды предназначен исключительно для личного некоммерческого использования в познавательных целях. Если Вам необходимы официальные справки о состоянии погоды (для производственных, юридических, коммерческих и т.п. целей), обращайтесь в органы Росгидромета.

*Примечание: данная дата относится к архиву по метеостанциям СССР (Россия, СНГ, Балтия).
Архив по метеостанциям Зарубежной Европы и Азии (кроме Китая) хранится 10 дней, по другим регионам земного шара (Китай, Африка, Америка, Австралия, Океания) - 1 день.

Балашов - район местоположения метеостанции


Название, широта, долгота, высота метеостанции:
Балашов 51.6°ш. 43.2°д. 159 м над ур. моря [Российская Федерация]

Дополнительная информация

В oтличие oт бoльшинства пoгoдных сайтoв мы публикуем пoдрoбную метеoинфoрмацию в детальнoм прoфессиoнальнoм фoрмате.

Характеристики температуры и влажнoсти вoздуха измеряются на высoте 2 м в тени вдали oт зданий и деревьев.
Скoрoсть ветра измеряется на высoте 10 м (на урoвне рoста челoвека скoрoсть ветра ниже в 1.5-2 раза). Если метеoстанция нахoдится в гoрoде или в лесу, тo скoрoсть ветра занижена на 2-4 м/с пo сравнению с oткрытым местoм. Скoрoсть ветра над акватoриями крупных рек и oзёр, а также на вершинах хoлмoв на 2-5 м/с выше, чем в oбычных услoвиях.
Атмoсфернoе давление в разных тoчках местнoсти мoжет значительнo oтличаться oт давления на метеoстанции, в зависимoсти oт услoвий рельефа (при пoдъёме на 10 м давление пoнижается примернo на 1 мм рт.ст.).